Location: Alafon
(8.4500°N, 4.2333°E)
Time: 01:29:15
(UTC+00:00)

Milstar 3 Cent rocket - Pass Details

Date: 05 July 2020
Orbit: 706 x 5147 km, 28.3° (Epoch: 06 August)

Event Time Altitude Azimuth Distance (km) Brightness Sun altitude
Rises 18:17:54 0° 317° (NW) 3,210 6.7 -3.6°
Reaches altitude 10° 18:21:02 10° 338° (NNW) 2,165 5.1 -4.3°
Maximum altitude 18:24:14 18° 23° (NNE) 1,718 3.9 -5.0°
Drops below altitude 10° 18:27:43 10° 67° (ENE) 2,379 4.2 -5.8°
Enters shadow 18:30:33 - 83° (E) 3,355 4.8 -6.5°
